TimeCDT,TemperatureF,Dew PointF,Humidity,Sea Level PressureIn,VisibilityMPH,Wind Direction,Wind SpeedMPH,Gust SpeedMPH,PrecipitationIn,Events,Conditions,WindDirDegrees,DateUTC
12:15 AM,37.4,17.6,45,29.87,10.0,WNW,28.8,47.2,N/A,,Clear,300,2012-10-18 05:15:00
12:35 AM,37.4,17.6,45,29.88,10.0,WNW,32.2,43.7,N/A,,Clear,300,2012-10-18 05:35:00
12:55 AM,37.4,15.8,41,29.88,10.0,WNW,39.1,49.5,N/A,,Clear,300,2012-10-18 05:55:00
1:15 AM,37.4,14.0,38,29.87,10.0,WNW,31.1,50.6,N/A,,Clear,300,2012-10-18 06:15:00
1:35 AM,37.4,14.0,38,29.88,10.0,WNW,33.4,44.9,N/A,,Clear,300,2012-10-18 06:35:00
1:55 AM,37.4,14.0,38,29.88,10.0,WNW,34.5,47.2,N/A,,Clear,300,2012-10-18 06:55:00
2:15 AM,37.4,14.0,38,29.89,10.0,WNW,35.7,44.9,N/A,,Clear,300,2012-10-18 07:15:00
2:35 AM,37.4,14.0,38,29.89,10.0,WNW,32.2,48.3,N/A,,Clear,290,2012-10-18 07:35:00
2:55 AM,37.4,14.0,38,29.90,10.0,WNW,34.5,44.9,N/A,,Clear,300,2012-10-18 07:55:00
3:15 AM,37.4,14.0,38,29.90,10.0,WNW,29.9,44.9,N/A,,Clear,300,2012-10-18 08:15:00
3:35 AM,37.4,14.0,38,29.90,10.0,WNW,26.5,47.2,N/A,,Clear,290,2012-10-18 08:35:00
3:55 AM,37.4,14.0,38,29.90,10.0,WNW,32.2,44.9,N/A,,Clear,300,2012-10-18 08:55:00
4:15 AM,37.4,14.0,38,29.91,10.0,WNW,36.8,49.5,N/A,,Mostly Cloudy,300,2012-10-18 09:15:00
4:55 AM,37.4,15.8,41,29.92,10.0,WNW,29.9,46.0,N/A,,Overcast,300,2012-10-18 09:55:00
5:15 AM,37.4,15.8,41,29.92,10.0,WNW,33.4,48.3,N/A,,Overcast,300,2012-10-18 10:15:00
5:35 AM,37.4,17.6,45,29.93,10.0,WNW,24.2,46.0,N/A,,Overcast,290,2012-10-18 10:35:00
5:55 AM,37.4,17.6,45,29.93,10.0,WNW,27.6,44.9,N/A,,Overcast,300,2012-10-18 10:55:00
6:15 AM,37.4,17.6,45,29.94,10.0,WNW,33.4,43.7,N/A,,Overcast,300,2012-10-18 11:15:00
6:35 AM,35.6,17.6,48,29.94,10.0,WNW,26.5,39.1,N/A,,Overcast,290,2012-10-18 11:35:00
6:55 AM,35.6,17.6,48,29.95,10.0,WNW,29.9,40.3,N/A,,Overcast,290,2012-10-18 11:55:00
7:15 AM,35.6,17.6,48,29.95,10.0,WNW,26.5,43.7,N/A,,Overcast,290,2012-10-18 12:15:00
7:35 AM,35.6,17.6,48,29.95,10.0,WNW,26.5,50.6,N/A,,Overcast,290,2012-10-18 12:35:00
7:55 AM,35.6,17.6,48,29.96,10.0,WNW,28.8,41.4,N/A,,Overcast,290,2012-10-18 12:55:00
8:15 AM,35.6,17.6,48,29.97,10.0,WNW,32.2,47.2,N/A,,Overcast,300,2012-10-18 13:15:00
8:35 AM,35.6,17.6,48,29.99,10.0,WNW,31.1,42.6,N/A,,Overcast,290,2012-10-18 13:35:00
8:55 AM,35.6,19.4,52,30.00,10.0,WNW,32.2,41.4,N/A,,Overcast,300,2012-10-18 13:55:00
9:15 AM,35.6,19.4,52,30.01,10.0,WNW,27.6,41.4,N/A,,Overcast,290,2012-10-18 14:15:00
9:35 AM,35.6,19.4,52,30.02,10.0,WNW,23.0,44.9,N/A,Rain,Light Rain,290,2012-10-18 14:35:00
9:55 AM,35.6,19.4,52,30.02,10.0,WNW,26.5,35.7,N/A,,Overcast,290,2012-10-18 14:55:00
10:15 AM,37.4,19.4,48,30.03,10.0,WNW,21.9,38.0,N/A,Rain,Light Rain,290,2012-10-18 15:15:00
10:35 AM,37.4,21.2,52,30.04,10.0,WNW,24.2,35.7,N/A,Rain,Light Rain,290,2012-10-18 15:35:00
10:55 AM,37.4,21.2,52,30.03,10.0,WNW,23.0,31.1,N/A,,Overcast,300,2012-10-18 15:55:00
11:15 AM,39.2,21.2,49,30.04,10.0,WNW,26.5,34.5,N/A,Rain,Light Rain,300,2012-10-18 16:15:00
11:35 AM,41.0,23.0,49,30.04,10.0,WNW,28.8,39.1,N/A,Rain,Light Rain,300,2012-10-18 16:35:00
11:55 AM,41.0,21.2,45,30.04,10.0,WNW,28.8,39.1,N/A,Rain,Light Rain,300,2012-10-18 16:55:00
12:15 PM,41.0,21.2,45,30.04,10.0,WNW,33.4,42.6,N/A,Rain,Light Rain,300,2012-10-18 17:15:00
12:35 PM,42.8,21.2,42,30.04,10.0,WNW,32.2,41.4,N/A,,Mostly Cloudy,300,2012-10-18 17:35:00
12:55 PM,42.8,21.2,42,30.05,10.0,NW,26.5,41.4,N/A,,Partly Cloudy,310,2012-10-18 17:55:00
1:15 PM,44.6,21.2,39,30.05,10.0,WNW,27.6,40.3,N/A,,Partly Cloudy,300,2012-10-18 18:15:00
1:35 PM,44.6,21.2,39,30.04,10.0,WNW,24.2,35.7,N/A,,Partly Cloudy,300,2012-10-18 18:35:00
1:55 PM,44.6,19.4,37,30.04,10.0,WNW,26.5,40.3,N/A,,Clear,300,2012-10-18 18:55:00
2:15 PM,46.4,19.4,34,30.04,10.0,NW,29.9,39.1,N/A,,Clear,310,2012-10-18 19:15:00
2:55 PM,46.4,19.4,34,30.03,10.0,NW,19.6,40.3,N/A,,Clear,310,2012-10-18 19:55:00
3:15 PM,46.4,17.6,32,30.04,10.0,NW,27.6,40.3,N/A,,Clear,310,2012-10-18 20:15:00
3:35 PM,46.4,17.6,32,30.04,10.0,NW,29.9,41.4,N/A,,Clear,310,2012-10-18 20:35:00
3:55 PM,48.2,15.8,27,30.04,10.0,NW,26.5,39.1,N/A,,Clear,310,2012-10-18 20:55:00
4:15 PM,48.2,14.0,25,30.04,10.0,WNW,31.1,39.1,N/A,,Clear,300,2012-10-18 21:15:00
4:35 PM,46.4,10.4,23,30.05,10.0,NW,27.6,43.7,N/A,,Clear,310,2012-10-18 21:35:00
4:55 PM,46.4,10.4,23,30.05,10.0,NW,27.6,39.1,N/A,,Clear,320,2012-10-18 21:55:00
5:15 PM,46.4,8.6,22,30.05,10.0,NW,26.5,32.2,N/A,,Clear,320,2012-10-18 22:15:00
5:55 PM,46.4,8.6,22,30.06,10.0,NW,24.2,35.7,N/A,,Clear,320,2012-10-18 22:55:00
6:15 PM,44.6,8.6,23,30.07,10.0,NW,20.7,34.5,N/A,,Clear,310,2012-10-18 23:15:00
6:35 PM,44.6,8.6,23,30.07,10.0,WNW,21.9,31.1,N/A,,Clear,300,2012-10-18 23:35:00
6:55 PM,42.8,8.6,25,30.07,10.0,NW,16.1,25.3,N/A,,Clear,310,2012-10-18 23:55:00
7:15 PM,41.0,8.6,26,30.07,10.0,NW,15.0,23.0,N/A,,Clear,310,2012-10-19 00:15:00
7:35 PM,41.0,8.6,26,30.07,10.0,NW,16.1,21.9,N/A,,Clear,310,2012-10-19 00:35:00
7:55 PM,41.0,10.4,29,30.07,10.0,WNW,16.1,23.0,N/A,,Clear,300,2012-10-19 00:55:00
8:15 PM,41.0,10.4,29,30.07,10.0,WNW,15.0,25.3,N/A,,Clear,290,2012-10-19 01:15:00
8:35 PM,39.2,10.4,31,30.07,10.0,WNW,13.8,20.7,N/A,,Clear,300,2012-10-19 01:35:00
8:55 PM,39.2,10.4,31,30.08,10.0,WNW,13.8,19.6,N/A,,Clear,290,2012-10-19 01:55:00
9:15 PM,39.2,10.4,31,30.08,10.0,WNW,13.8,19.6,N/A,,Clear,290,2012-10-19 02:15:00
9:35 PM,39.2,10.4,31,30.08,10.0,WNW,16.1,21.9,N/A,,Clear,290,2012-10-19 02:35:00
9:55 PM,39.2,10.4,31,30.08,10.0,West,11.5,18.4,N/A,,Clear,280,2012-10-19 02:55:00
10:15 PM,37.4,10.4,33,30.07,10.0,West,11.5,17.3,N/A,,Clear,280,2012-10-19 03:15:00
10:35 PM,37.4,12.2,36,30.07,10.0,West,12.7,-,N/A,,Clear,270,2012-10-19 03:35:00